�������l�o���
Date,Time,MP-1(��Sv/h),MP-2(��Sv/h),MP-3(��Sv/h),MP-4(��Sv/h),MP-5(��Sv/h),MP-6(��Sv/h),MP-7(��Sv/h),����,����(m/s),���J
2022/07/04,00:00,0.161,0.148,0.238,0.230,0.223,0.125,0.081,��쐼,0.7,�L
2022/07/04,00:10,0.159,0.149,0.240,0.229,0.221,0.126,0.081,-,CALM,�L
2022/07/04,00:20,0.160,0.149,0.241,0.232,0.222,0.126,0.081,-,CALM,�L
2022/07/04,00:30,0.162,0.147,0.239,0.231,0.224,0.126,0.082,-,CALM,�L
2022/07/04,00:40,0.160,0.150,0.241,0.229,0.225,0.126,0.081,�k�k��,2.3,�L
2022/07/04,00:50,0.160,0.149,0.242,0.231,0.221,0.126,0.081,�k�k��,4.4,�L
2022/07/04,01:00,0.162,0.148,0.239,0.232,0.223,0.125,0.082,�k,5.6,�L
2022/07/04,01:10,0.161,0.148,0.239,0.230,0.225,0.126,0.082,�k,5.3,�L
2022/07/04,01:20,0.159,0.149,0.240,0.230,0.222,0.126,0.082,�k�k��,5.4,�L
2022/07/04,01:30,0.161,0.148,0.239,0.234,0.221,0.127,0.082,�k��,5.4,�L
2022/07/04,01:40,0.161,0.149,0.240,0.231,0.225,0.126,0.082,���k��,5.1,�L
2022/07/04,01:50,0.159,0.149,0.239,0.227,0.222,0.127,0.081,�k�k��,4.1,�L
2022/07/04,02:00,0.159,0.146,0.237,0.228,0.217,0.125,0.081,���k��,4.2,�L
2022/07/04,02:10,0.160,0.148,0.236,0.227,0.222,0.124,0.082,�k��,3.5,�L
2022/07/04,02:20,0.159,0.148,0.239,0.226,0.221,0.126,0.082,�k��,3.6,�L
2022/07/04,02:30,0.159,0.146,0.236,0.228,0.218,0.124,0.081,�k��,4.2,�L
2022/07/04,02:40,0.160,0.147,0.236,0.226,0.220,0.125,0.082,�k��,5.0,�L
2022/07/04,02:50,0.157,0.148,0.236,0.224,0.220,0.126,0.081,�k��,5.1,�L
2022/07/04,03:00,0.159,0.147,0.233,0.226,0.218,0.125,0.082,�k��,5.5,�L
2022/07/04,03:10,0.158,0.147,0.236,0.224,0.221,0.125,0.081,�k��,3.3,�L
2022/07/04,03:20,0.157,0.146,0.234,0.224,0.218,0.124,0.081,�k��,3.5,�L
2022/07/04,03:30,0.158,0.146,0.232,0.226,0.218,0.124,0.082,�k�k��,2.9,�L
2022/07/04,03:40,0.157,0.146,0.235,0.224,0.221,0.124,0.082,�k,1.9,�L
2022/07/04,03:50,0.157,0.145,0.232,0.224,0.218,0.126,0.081,���k��,1.3,�L
2022/07/04,04:00,0.157,0.145,0.234,0.224,0.217,0.123,0.081,��,1.5,�L
2022/07/04,04:10,0.156,0.144,0.234,0.221,0.220,0.124,0.079,���k��,1.4,�L
2022/07/04,04:20,0.156,0.145,0.231,0.224,0.216,0.123,0.080,�쓌,1.2,�L
2022/07/04,04:30,0.157,0.143,0.233,0.222,0.217,0.122,0.079,���쓌,1.4,�L
2022/07/04,04:40,0.155,0.143,0.231,0.222,0.218,0.122,0.079,�쓌,1.3,��
2022/07/04,04:50,0.156,0.143,0.231,0.223,0.215,0.123,0.078,���쓌,1.9,��
2022/07/04,05:00,0.155,0.143,0.232,0.220,0.217,0.122,0.078,���쓌,1.2,��
2022/07/04,05:10,0.154,0.142,0.229,0.221,0.216,0.121,0.078,���쓌,1.4,��
2022/07/04,05:20,0.156,0.143,0.231,0.222,0.214,0.122,0.079,���쓌,0.8,��
2022/07/04,05:30,0.155,0.143,0.232,0.221,0.215,0.122,0.078,��,1.0,��
2022/07/04,05:40,0.153,0.143,0.228,0.221,0.217,0.120,0.078,���쓌,1.5,��
2022/07/04,05:50,0.155,0.143,0.230,0.222,0.215,0.121,0.078,��,1.3,��
2022/07/04,06:00,0.155,0.143,0.231,0.220,0.217,0.122,0.078,�쐼,1.9,��
2022/07/04,06:10,0.152,0.144,0.230,0.222,0.218,0.121,0.078,�쐼,0.9,��
2022/07/04,06:20,0.156,0.144,0.231,0.224,0.217,0.123,0.079,���쐼,0.7,��
2022/07/04,06:30,0.155,0.143,0.233,0.221,0.215,0.122,0.078,��,0.9,�L
2022/07/04,06:40,0.154,0.143,0.231,0.220,0.218,0.121,0.078,��쓌,1.3,��
2022/07/04,06:50,0.154,0.144,0.230,0.223,0.217,0.121,0.078,��,1.5,��
2022/07/04,07:00,0.155,0.143,0.233,0.222,0.215,0.122,0.079,��,0.7,��
2022/07/04,07:10,0.153,0.142,0.231,0.220,0.214,0.121,0.077,��,0.9,��
2022/07/04,07:20,0.153,0.142,0.230,0.220,0.216,0.121,0.077,-,CALM,��
2022/07/04,07:30,0.155,0.142,0.228,0.219,0.218,0.121,0.078,-,CALM,��
2022/07/04,07:40,0.155,0.143,0.227,0.223,0.216,0.122,0.077,���k��,0.9,��
2022/07/04,07:50,0.154,0.144,0.228,0.222,0.215,0.121,0.078,���k��,1.0,��
2022/07/04,08:00,0.153,0.143,0.228,0.221,0.213,0.121,0.078,�k��,1.1,��
2022/07/04,08:10,0.154,0.143,0.229,0.221,0.214,0.121,0.078,�k�k��,0.6,��
2022/07/04,08:20,0.157,0.143,0.230,0.221,0.216,0.121,0.078,��,1.6,��
2022/07/04,08:30,0.156,0.144,0.231,0.221,0.216,0.121,0.079,���k��,2.2,��
2022/07/04,08:40,0.156,0.143,0.230,0.222,0.217,0.122,0.078,�k,1.5,��
2022/07/04,08:50,0.154,0.143,0.232,0.221,0.217,0.122,0.078,�k,1.7,��
2022/07/04,09:00,0.152,0.143,0.233,0.222,0.216,0.122,0.078,�k,1.4,��
2022/07/04,09:10,0.154,0.144,0.232,0.223,0.216,0.122,0.078,�k��,2.3,��
2022/07/04,09:20,0.154,0.144,0.233,0.222,0.217,0.122,0.078,�k��,3.1,��
2022/07/04,09:30,0.153,0.144,0.232,0.223,0.217,0.122,0.078,�k��,3.2,��
2022/07/04,09:40,0.154,0.143,0.232,0.222,0.217,0.123,0.078,���k��,3.0,��
2022/07/04,09:50,0.154,0.144,0.231,0.222,0.218,0.122,0.078,���k��,2.8,��
2022/07/04,10:00,0.154,0.144,0.231,0.221,0.218,0.122,0.078,���k��,2.6,��
2022/07/04,10:10,0.154,0.144,0.232,0.222,0.218,0.122,0.079,���k��,2.9,��
2022/07/04,10:20,0.155,0.143,0.232,0.223,0.218,0.122,0.079,���k��,2.1,��
2022/07/04,10:30,0.154,0.145,0.231,0.222,0.217,0.122,0.078,�k,2.2,��
2022/07/04,10:40,0.155,0.145,0.231,0.222,0.218,0.123,0.079,�k��,2.2,��
2022/07/04,10:50,0.155,0.144,0.232,0.223,0.218,0.123,0.078,���k��,1.7,��
2022/07/04,11:00,0.155,0.144,0.233,0.223,0.217,0.123,0.079,��,1.5,��
2022/07/04,11:10,0.155,0.144,0.231,0.222,0.218,0.123,0.079,���k��,1.4,��
2022/07/04,11:20,0.154,0.144,0.233,0.224,0.217,0.123,0.079,��,0.8,�L
2022/07/04,11:30,0.156,0.144,0.233,0.223,0.219,0.123,0.079,��,1.8,�L
2022/07/04,11:40,0.156,0.144,0.233,0.223,0.217,0.123,0.078,��,2.0,��
2022/07/04,11:50,0.156,0.144,0.233,0.224,0.218,0.123,0.079,���쓌,1.9,��
2022/07/04,12:00,0.155,0.144,0.232,0.224,0.218,0.123,0.079,���쓌,2.0,��
2022/07/04,12:10,0.155,0.144,0.232,0.222,0.218,0.122,0.079,���쓌,2.7,��
2022/07/04,12:20,0.155,0.144,0.233,0.223,0.218,0.122,0.078,�쓌,2.8,��
2022/07/04,12:30,0.154,0.144,0.233,0.223,0.217,0.122,0.078,�쓌,2.6,��
2022/07/04,12:40,0.155,0.144,0.234,0.224,0.216,0.122,0.079,��쓌,3.2,��
2022/07/04,12:50,0.156,0.145,0.232,0.224,0.217,0.122,0.079,�쓌,3.5,��
2022/07/04,13:00,0.155,0.144,0.233,0.223,0.217,0.122,0.078,��쓌,4.1,��
2022/07/04,13:10,0.156,0.145,0.232,0.223,0.218,0.122,0.078,�쓌,4.2,��
2022/07/04,13:20,0.156,0.144,0.232,0.224,0.217,0.122,0.078,��쓌,2.2,��
2022/07/04,13:30,0.155,0.143,0.232,0.224,0.217,0.123,0.078,��쓌,3.5,��
2022/07/04,13:40,0.155,0.144,0.233,0.223,0.218,0.123,0.078,��쓌,4.0,��
2022/07/04,13:50,0.156,0.144,0.234,0.224,0.218,0.123,0.078,��,3.9,��
2022/07/04,14:00,0.156,0.144,0.233,0.223,0.218,0.123,0.079,��쓌,3.5,��
2022/07/04,14:10,0.154,0.143,0.232,0.224,0.217,0.123,0.078,��쓌,4.1,��
2022/07/04,14:20,0.154,0.143,0.233,0.224,0.219,0.123,0.079,��쓌,4.3,��
2022/07/04,14:30,0.155,0.143,0.233,0.223,0.218,0.123,0.077,��,4.1,��
2022/07/04,14:40,0.155,0.144,0.234,0.223,0.217,0.123,0.078,��,4.9,��
2022/07/04,14:50,0.156,0.144,0.233,0.224,0.217,0.123,0.078,��,4.9,��
2022/07/04,15:00,0.156,0.144,0.232,0.224,0.217,0.123,0.078,��쓌,5.6,��
2022/07/04,15:10,0.155,0.143,0.233,0.222,0.216,0.122,0.078,��,5.0,��
2022/07/04,15:20,0.153,0.144,0.231,0.223,0.216,0.123,0.079,��쓌,5.2,��
2022/07/04,15:30,0.156,0.145,0.234,0.226,0.216,0.122,0.078,��,4.7,��
2022/07/04,15:40,0.158,0.145,0.235,0.226,0.220,0.122,0.079,��쓌,5.2,�L
2022/07/04,15:50,0.156,0.144,0.234,0.225,0.218,0.122,0.079,��쓌,4.6,�L
2022/07/04,16:00,0.156,0.145,0.232,0.222,0.218,0.124,0.079,��쓌,4.5,�L
2022/07/04,16:10,0.158,0.146,0.233,0.227,0.218,0.123,0.078,��,4.1,�L
2022/07/04,16:20,0.158,0.146,0.238,0.227,0.221,0.123,0.079,��,3.3,�L
2022/07/04,16:30,0.157,0.145,0.236,0.226,0.222,0.124,0.080,��,3.2,�L
2022/07/04,16:40,0.156,0.147,0.236,0.226,0.219,0.125,0.080,��,3.4,�L
2022/07/04,16:50,0.155,0.148,0.234,0.225,0.219,0.125,0.080,��쐼,2.0,��
2022/07/04,17:00,0.154,0.147,0.237,0.227,0.217,0.124,0.079,��,2.7,��
2022/07/04,17:10,0.157,0.146,0.238,0.226,0.218,0.124,0.079,��쐼,2.1,��
2022/07/04,17:20,0.158,0.144,0.237,0.224,0.218,0.124,0.080,��쐼,2.5,��
2022/07/04,17:30,0.157,0.144,0.234,0.223,0.217,0.124,0.079,��,2.4,��
2022/07/04,17:40,0.157,0.146,0.233,0.223,0.218,0.124,0.078,��,3.1,��
2022/07/04,17:50,0.155,0.146,0.232,0.225,0.217,0.125,0.079,��,3.1,��
2022/07/04,18:00,0.155,0.146,0.233,0.227,0.218,0.123,0.079,��,4.1,��
2022/07/04,18:10,0.155,0.144,0.233,0.226,0.217,0.123,0.079,��,4.6,��
2022/07/04,18:20,0.155,0.145,0.236,0.225,0.218,0.123,0.078,��,4.7,��
2022/07/04,18:30,0.155,0.145,0.236,0.224,0.219,0.124,0.078,��,3.8,��
2022/07/04,18:40,0.155,0.146,0.235,0.227,0.219,0.124,0.079,��,3.6,��
2022/07/04,18:50,0.157,0.146,0.233,0.227,0.221,0.123,0.079,��,3.0,��
2022/07/04,19:00,0.157,0.145,0.236,0.224,0.220,0.123,0.079,��쓌,2.6,��
2022/07/04,19:10,0.155,0.145,0.236,0.224,0.219,0.124,0.078,�쓌,3.2,��
2022/07/04,19:20,0.157,0.145,0.234,0.226,0.219,0.123,0.078,�쓌,3.9,��
2022/07/04,19:30,0.158,0.145,0.234,0.226,0.221,0.122,0.079,���쓌,4.2,��
2022/07/04,19:40,0.156,0.145,0.236,0.224,0.219,0.123,0.079,�쓌,4.0,��
2022/07/04,19:50,0.156,0.145,0.234,0.226,0.219,0.122,0.079,�쓌,3.3,��
2022/07/04,20:00,0.158,0.144,0.234,0.226,0.220,0.123,0.079,��쓌,3.1,��
2022/07/04,20:10,0.156,0.145,0.235,0.224,0.217,0.124,0.079,��쓌,3.0,��
2022/07/04,20:20,0.156,0.145,0.234,0.226,0.218,0.123,0.078,��,1.9,��
2022/07/04,20:30,0.158,0.144,0.234,0.225,0.220,0.122,0.078,��,2.8,��
2022/07/04,20:40,0.156,0.145,0.237,0.224,0.218,0.123,0.078,��,3.0,��
2022/07/04,20:50,0.155,0.145,0.234,0.226,0.217,0.123,0.079,��,2.9,��
2022/07/04,21:00,0.157,0.144,0.234,0.227,0.221,0.123,0.078,��쐼,1.4,��
2022/07/04,21:10,0.156,0.145,0.236,0.224,0.220,0.122,0.078,��,0.6,��
2022/07/04,21:20,0.155,0.146,0.234,0.226,0.217,0.124,0.079,��쓌,1.7,��
2022/07/04,21:30,0.156,0.144,0.236,0.226,0.221,0.122,0.079,��쓌,3.6,��
2022/07/04,21:40,0.156,0.146,0.235,0.225,0.219,0.122,0.079,��,3.4,��
2022/07/04,21:50,0.155,0.145,0.234,0.227,0.217,0.124,0.078,��쓌,1.3,��
2022/07/04,22:00,0.156,0.144,0.235,0.226,0.220,0.123,0.078,��쓌,1.9,��
2022/07/04,22:10,0.157,0.146,0.235,0.224,0.220,0.123,0.079,��쓌,1.9,��
2022/07/04,22:20,0.156,0.144,0.233,0.227,0.217,0.123,0.079,�쓌,1.5,��
2022/07/04,22:30,0.156,0.144,0.235,0.226,0.220,0.123,0.079,��,1.4,��
2022/07/04,22:40,0.156,0.145,0.235,0.223,0.220,0.122,0.079,��,0.8,��
2022/07/04,22:50,0.155,0.145,0.234,0.226,0.217,0.123,0.079,��쓌,1.9,��
2022/07/04,23:00,0.157,0.144,0.235,0.227,0.221,0.122,0.078,��쓌,2.8,��
2022/07/04,23:10,0.157,0.146,0.235,0.225,0.220,0.123,0.079,��쓌,2.4,��
2022/07/04,23:20,0.156,0.144,0.234,0.227,0.218,0.123,0.079,��,2.1,��
2022/07/04,23:30,0.156,0.145,0.236,0.226,0.221,0.122,0.078,��쓌,1.9,��
2022/07/04,23:40,0.156,0.145,0.233,0.225,0.221,0.124,0.080,��,2.2,��
2022/07/04,23:50,0.156,0.145,0.235,0.227,0.217,0.124,0.078,��,3.2,��
